Find SARAL

NORAD ID: 39086 Int'l Des: 2013-009 Owner: ISRO/CNES Country: IN operational
LEOCIRCULARRETROGRADESSO

当前视图

正在加载3D地球...

About SARAL

SARAL (NORAD 39086) is a satellite launched Feb 25, 2013 by ISRO/CNES of IN. It operates in LEO, CIRCULAR, RETROGRADE, SSO orbit with a mass of 409.00 kg.

即将过境

Passes for default location (London). Set your location on the main map for personalized predictions.

高度历史

Loading altitude history...

两行轨道根数

1 39086U 13009A 26194.64608838 .00000041 00000-0 30927-4 0 9994
2 39086 98.5554 20.8787 0001605 170.5930 189.5285 14.32895557699396
Epoch: Jul 13, 2026 • Age: 11 hours

当前状态

高度 784.8 km
远地点 / 近地点 N/A
速度 7.46 km/s
星下点 -5.34°S, 127.8°W
发射日期 Feb 25, 2013
运行时间 13.3 years
类型 other

技术详情

分类 Payload
质量 409.00 kg
干质量 409.00 kg
总质量 409.00 kg
长度 2.70 m
直径 1.00 m
跨度 4.00 m
形状 Box + 2 pan
制造商 ISAC
平台类型 SSB-2
阶段状态 In Orbit
所有者/国家 ISRO/CNES/IN

Most Searched